Home   Weather   Boa Vista   Past weeks

Flag for Brazil Past Weather in Boa Vista, Roraima, Brazil — Yesterday and Last 2 Weeks

Now
91 °F

Partly sunny.


Feels Like: 99 °F
Forecast: 78 / 92 °F
Wind: 17 mph from East

Location: Boa Vista Aeropor-To

Current Time: Apr 27, 2017 at 1:21:35 pm

Latest Report: Apr 27, 2017 at 1:00 pm


Visibility: N/A

Pressure: 29.83 "Hg

Humidity: 52%

Dew Point: 72 °F

Location of Boa VistaLocation

Past Weather in Boa Vista — Graph

°F

Boa Vista Temperature Yesterday

Maximum temperature yesterday: 93 °F (at 2:00 pm)
Minimum temperature yesterday: 77 °F (at 4:00 am)
Average temperature yesterday: 84 °F

High & Low Weather Summary for the Past Weeks

 TemperatureHumidityPressure
High95 °F (Apr 24, 3:00 pm)100% (Apr 13, 2:00 am)29.98 "Hg (Apr 13, 2:00 am)
Low37 °F (Apr 17, 5:00 am)44% (Apr 22, 1:00 pm)29.71 "Hg (Apr 24, 5:00 pm)
Average82 °F74%29.86 "Hg
* Reported Apr 12 12:00 pm — Apr 27 12:00 pm, Boa Vista, Weather by CustomWeather, © 2017

Note: Actual official high and low records may vary slightly from our data, if they occured in-between our weather recording intervals... More about our weather records

Advertising

Boa Vista Weather History for the Previous 24 Hours

Scroll right to see more
 ConditionsComfort  
Time TempWeatherWind HumidityBarometerVisibility
12:00 pm
Thu, Apr 27
88 °FBroken clouds.16 mph59%29.89 "HgN/A
11:00 am86 °FPartly sunny.17 mph66%29.89 "HgN/A
10:00 am86 °FPartly sunny.16 mph66%29.89 "HgN/A
9:00 am84 °FPartly sunny.18 mph74%29.89 "HgN/A
8:00 am82 °FSunny.16 mph79%29.89 "Hg10 mi
7:00 am79 °FSunny.9 mph89%29.86 "Hg10 mi
6:00 am77 °FSunny.9 mph89%29.86 "Hg10 mi
5:00 am77 °FPassing clouds.6 mph89%29.86 "HgN/A
4:00 am77 °FPassing clouds.7 mph89%29.83 "HgN/A
3:00 am77 °FPassing clouds.6 mph89%29.83 "HgN/A
2:00 am79 °FPassing clouds.8 mph84%29.83 "HgN/A
1:00 am79 °FPassing clouds.8 mph89%29.86 "HgN/A
12:00 am79 °FPassing clouds.7 mph89%29.86 "HgN/A
11:00 pm
Wed, Apr 26
77 °FPassing clouds.6 mph89%29.86 "HgN/A
9:00 pm82 °FPassing clouds.3 mph79%29.83 "HgN/A
8:00 pm84 °FPassing clouds.8 mph74%29.80 "HgN/A
7:00 pm86 °FPassing clouds.7 mph66%29.77 "HgN/A
6:00 pm88 °FBroken clouds.7 mph59%29.77 "HgN/A
5:00 pm88 °FBroken clouds.10 mph59%29.74 "HgN/A
4:00 pm86 °FPartly sunny.12 mph70%29.77 "HgN/A
3:00 pm91 °FPartly sunny.12 mph56%29.77 "HgN/A
2:00 pm93 °FPartly sunny.10 mph49%29.80 "HgN/A
1:00 pm91 °FPartly sunny.10 mph52%29.83 "HgN/A
Weather by CustomWeather, © 2017

See weather overviewHow to use our weather pages